datetime,flow
1938-08-24,18.0
1938-08-25,308.0
1938-08-26,960.0
1938-08-27,1070.0
1938-08-28,1080.0
1938-08-29,1090.0
1938-08-30,1130.0
1938-08-31,609.0
1938-09-01,274.0
1938-09-02,203.0
1938-09-03,411.0
1938-09-04,1440.0
1938-09-05,3640.0
1938-09-06,900.0
1938-09-07,550.0
1938-09-08,852.0
1938-09-09,1310.0
1938-09-10,650.0
1938-09-11,340.0
1938-09-12,270.0
1938-09-13,212.0
1938-09-14,194.0
1938-09-15,218.0
1938-09-16,164.0
1938-09-17,122.0
1938-09-18,106.0
1938-09-19,110.0
1938-09-20,108.0
1938-09-21,101.0
1938-09-22,103.0
1938-09-23,95.0
1938-09-24,92.0
1938-09-25,82.0
1938-09-26,78.0
1938-09-27,71.0
1938-09-28,68.0
1938-09-29,70.0
1938-09-30,66.0
1938-10-01,62.0
1938-10-02,58.0
1938-10-03,57.0
1938-10-04,52.0
1938-10-05,51.0
1938-10-06,51.0
1938-10-07,51.0
1938-10-08,72.0
1938-10-09,156.0
1938-10-10,165.0
1938-10-11,2100.0
1938-10-12,1500.0
1938-10-13,576.0
1938-10-14,374.0
1938-10-15,252.0
1938-10-16,209.0
1938-10-17,178.0
1938-10-18,162.0
1938-10-19,156.0
1938-10-20,147.0
1938-10-21,145.0
1938-10-22,145.0
1938-10-23,138.0
1938-10-24,130.0
1938-10-25,147.0
1938-10-26,165.0
1938-10-27,165.0
1938-10-28,165.0
1938-10-29,170.0
1938-10-30,168.0
1938-10-31,165.0
1938-11-01,160.0
1938-11-02,153.0
1938-11-03,151.0
1938-11-04,151.0
1938-11-05,156.0
1938-11-06,149.0
1938-11-07,156.0
1938-11-08,162.0
1938-11-09,160.0
1938-11-10,160.0
1938-11-11,153.0
1938-11-12,145.0
1938-11-13,134.0
1938-11-14,130.0
1938-11-15,128.0
1938-11-16,128.0
1938-11-17,126.0
1938-11-18,122.0
1938-11-19,122.0
1938-11-20,122.0
1938-11-21,130.0
1938-11-22,108.0
1938-11-23,94.0
1938-11-24,90.0
1938-11-25,90.0
1938-11-26,88.0
1938-11-27,88.0
1938-11-28,85.0
1938-11-29,83.0
1938-11-30,82.0
1938-12-01,82.0
1938-12-02,85.0
1938-12-03,83.0
1938-12-04,86.0
1938-12-05,85.0
1938-12-06,83.0
1938-12-07,78.0
1938-12-08,71.0
1938-12-09,73.0
1938-12-10,75.0
1938-12-11,106.0
1938-12-12,106.0
1938-12-13,106.0
1938-12-14,103.0
1938-12-15,100.0
1938-12-16,101.0
1938-12-17,110.0
1938-12-18,115.0
1938-12-19,110.0
1938-12-20,118.0
1938-12-21,128.0
1938-12-22,118.0
1938-12-23,111.0
1938-12-24,110.0
1938-12-25,110.0
1938-12-26,116.0
1938-12-27,120.0
1938-12-28,108.0
1938-12-29,101.0
1938-12-30,98.0
1938-12-31,101.0
1939-01-01,100.0
1939-01-02,98.0
1939-01-03,98.0
1939-01-04,103.0
1939-01-05,98.0
1939-01-06,98.0
1939-01-07,100.0
1939-01-08,111.0
1939-01-09,120.0
1939-01-10,134.0
1939-01-11,130.0
1939-01-12,134.0
1939-01-13,160.0
1939-01-14,160.0
1939-01-15,140.0
1939-01-16,128.0
1939-01-17,122.0
1939-01-18,116.0
1939-01-19,110.0
1939-01-20,106.0
1939-01-21,104.0
1939-01-22,104.0
1939-01-23,120.0
1939-01-24,122.0
1939-01-25,115.0
1939-01-26,104.0
1939-01-27,110.0
1939-01-28,116.0
1939-01-29,118.0
1939-01-30,104.0
1939-01-31,103.0
1939-02-01,108.0
1939-02-02,101.0
1939-02-03,98.0
1939-02-04,98.0
1939-02-05,98.0
1939-02-06,106.0
1939-02-07,115.0
1939-02-08,116.0
1939-02-09,120.0
1939-02-10,120.0
1939-02-11,116.0
1939-02-12,124.0
1939-02-13,124.0
1939-02-14,104.0
1939-02-15,88.0
1939-02-16,89.0
1939-02-17,89.0
1939-02-18,88.0
1939-02-19,89.0
1939-02-20,98.0
1939-02-21,92.0
1939-02-22,88.0
1939-02-23,89.0
1939-02-24,100.0
1939-02-25,101.0
1939-02-26,104.0
1939-02-27,106.0
1939-02-28,98.0
1939-03-01,90.0
1939-03-02,78.0
1939-03-03,75.0
1939-03-04,75.0
1939-03-05,80.0
1939-03-06,79.0
1939-03-07,78.0
1939-03-08,75.0
1939-03-09,75.0
1939-03-10,72.0
1939-03-11,80.0
1939-03-12,76.0
1939-03-13,75.0
1939-03-14,66.0
1939-03-15,59.0
1939-03-16,64.0
1939-03-17,68.0
1939-03-18,67.0
1939-03-19,75.0
1939-03-20,86.0
1939-03-21,83.0
1939-03-22,94.0
1939-03-23,111.0
1939-03-24,104.0
1939-03-25,110.0
1939-03-26,100.0
1939-03-27,3200.0
1939-03-28,4230.0
1939-03-29,2010.0
1939-03-30,554.0
1939-03-31,326.0
1939-04-01,224.0
1939-04-02,193.0
1939-04-03,162.0
1939-04-04,142.0
1939-04-05,145.0
1939-04-06,2200.0
1939-04-07,780.0
1939-04-08,420.0
1939-04-09,303.0
1939-04-10,227.0
1939-04-11,178.0
1939-04-12,142.0
1939-04-13,126.0
1939-04-14,115.0
1939-04-15,108.0
1939-04-16,124.0
1939-04-17,130.0
1939-04-18,118.0
1939-04-19,111.0
1939-04-20,111.0
1939-04-21,106.0
1939-04-22,106.0
1939-04-23,115.0
1939-04-24,108.0
1939-04-25,95.0
1939-04-26,98.0
1939-04-27,104.0
1939-04-28,101.0
1939-04-29,96.0
1939-04-30,96.0
1939-05-01,90.0
1939-05-02,80.0
1939-05-03,72.0
1939-05-04,67.0
1939-05-05,2350.0
1939-05-06,2220.0
1939-05-07,2500.0
1939-05-08,2600.0
1939-05-09,998.0
1939-05-10,382.0
1939-05-11,245.0
1939-05-12,188.0
1939-05-13,153.0
1939-05-14,151.0
1939-05-15,145.0
1939-05-16,122.0
1939-05-17,111.0
1939-05-18,98.0
1939-05-19,113.0
1939-05-20,118.0
1939-05-21,108.0
1939-05-22,101.0
1939-05-23,78.0
1939-05-24,66.0
1939-05-25,56.0
1939-05-26,41.0
1939-05-27,45.0
1939-05-28,58.0
1939-05-29,70.0
1939-05-30,73.0
1939-05-31,74.0
1939-06-01,71.0
1939-06-02,83.0
1939-06-03,103.0
1939-06-04,92.0
1939-06-05,75.0
1939-06-06,56.0
1939-06-07,49.0
1939-06-08,47.0
1939-06-09,44.0
1939-06-10,34.0
1939-06-11,38.0
1939-06-12,42.0
1939-06-13,26.0
1939-06-14,23.0
1939-06-15,25.0
1939-06-16,21.0
1939-06-17,13.0
1939-06-18,9.0
1939-06-19,18.0
1939-06-20,11.0
1939-06-21,72.0
1939-06-22,876.0
1939-06-23,1410.0
1939-06-24,1220.0
1939-06-25,1200.0
1939-06-26,1220.0
1939-06-27,1220.0
1939-06-28,1410.0
1939-06-29,1360.0
1939-06-30,1020.0
1939-07-01,398.0
1939-07-02,374.0
1939-07-03,196.0
1939-07-04,140.0
1939-07-05,111.0
1939-07-06,101.0
1939-07-07,78.0
1939-07-08,45.0
1939-07-09,34.0
1939-07-10,41.0
1939-07-11,28.0
1939-07-12,18.0
1939-07-13,16.0
1939-07-14,42.0
1939-07-15,3700.0
1939-07-16,1200.0
1939-07-17,422.0
1939-07-18,282.0
1939-07-19,683.0
1939-07-20,511.0
1939-07-21,265.0
1939-07-22,165.0
1939-07-23,142.0
1939-07-24,113.0
1939-07-25,90.0
1939-07-26,60.0
1939-07-27,100.0
1939-07-28,150.0
1939-07-29,196.0
1939-07-30,227.0
1939-07-31,1880.0
1939-08-01,690.0
1939-08-02,374.0
1939-08-03,230.0
1939-08-04,1270.0
1939-08-05,1010.0
1939-08-06,414.0
1939-08-07,314.0
1939-08-08,207.0
1939-08-09,172.0
1939-08-10,178.0
1939-08-11,158.0
1939-08-12,136.0
1939-08-13,122.0
1939-08-14,136.0
1939-08-15,692.0
1939-08-16,370.0
1939-08-17,215.0
1939-08-18,158.0
1939-08-19,132.0
1939-08-20,115.0
1939-08-21,101.0
1939-08-22,85.0
1939-08-23,358.0
1939-08-24,296.0
1939-08-25,151.0
1939-08-26,128.0
1939-08-27,108.0
1939-08-28,88.0
1939-08-29,68.0
1939-08-30,53.0
1939-08-31,42.0
1939-09-01,39.0
1939-09-02,34.0
1939-09-03,41.0
1939-09-04,39.0
1939-09-05,21.0
1939-09-06,13.0
1939-09-07,9.0
1939-09-08,8.0
1939-09-09,9.0
1939-09-10,1200.0
1939-09-11,4080.0
1939-09-12,2220.0
1939-09-13,515.0
1939-09-14,306.0
1939-09-15,236.0
1939-09-16,374.0
1939-09-17,190.0
1939-09-18,168.0
1939-09-19,158.0
1939-09-20,233.0
1939-09-21,185.0
1939-09-22,138.0
1939-09-23,108.0
1939-09-24,108.0
1939-09-25,101.0
1939-09-26,96.0
1939-09-27,92.0
1939-09-28,83.0
1939-09-29,75.0
1939-09-30,64.0
1939-10-01,61.0
1939-10-02,67.0
1939-10-03,62.0
1939-10-04,62.0
1939-10-05,59.0
1939-10-06,54.0
1939-10-07,56.0
1939-10-08,75.0
1939-10-09,76.0
1939-10-10,92.0
1939-10-11,90.0
1939-10-12,118.0
1939-10-13,132.0
1939-10-14,115.0
1939-10-15,103.0
1939-10-16,108.0
1939-10-17,96.0
1939-10-18,95.0
1939-10-19,89.0
1939-10-20,88.0
1939-10-21,89.0
1939-10-22,92.0
1939-10-23,90.0
1939-10-24,88.0
1939-10-25,85.0
1939-10-26,82.0
1939-10-27,76.0
1939-10-28,71.0
1939-10-29,76.0
1939-10-30,72.0
1939-10-31,65.0
1939-11-01,66.0
1939-11-02,65.0
1939-11-03,67.0
1939-11-04,68.0
1939-11-05,71.0
1939-11-06,70.0
1939-11-07,65.0
1939-11-08,72.0
1939-11-09,78.0
1939-11-10,79.0
1939-11-11,78.0
1939-11-12,82.0
1939-11-13,78.0
1939-11-14,72.0
1939-11-15,76.0
1939-11-16,75.0
1939-11-17,76.0
1939-11-18,78.0
1939-11-19,78.0
1939-11-20,79.0
1939-11-21,75.0
1939-11-22,76.0
1939-11-23,76.0
1939-11-24,76.0
1939-11-25,79.0
1939-11-26,83.0
1939-11-27,86.0
1939-11-28,94.0
1939-11-29,96.0
1939-11-30,101.0
1939-12-01,101.0
1939-12-02,100.0
1939-12-03,98.0
1939-12-04,96.0
1939-12-05,103.0
1939-12-06,116.0
1939-12-07,115.0
1939-12-08,115.0
1939-12-09,103.0
1939-12-10,96.0
1939-12-11,94.0
1939-12-12,94.0
1939-12-13,111.0
1939-12-14,122.0
1939-12-15,120.0
1939-12-16,115.0
1939-12-17,95.0
1939-12-18,85.0
1939-12-19,80.0
1939-12-20,80.0
1939-12-21,80.0
1939-12-22,82.0
1939-12-23,92.0
1939-12-24,100.0
1939-12-25,115.0
1939-12-26,122.0
1939-12-27,130.0
1939-12-28,136.0
1939-12-29,151.0
1939-12-30,149.0
1939-12-31,136.0
1940-01-01,140.0
1940-01-02,140.0
1940-01-03,145.0
1940-01-04,136.0
1940-01-05,124.0
1940-01-06,118.0
1940-01-07,111.0
1940-01-08,108.0
1940-01-09,106.0
1940-01-10,106.0
1940-01-11,106.0
1940-01-12,103.0
1940-01-13,106.0
1940-01-14,98.0
1940-01-15,95.0
1940-01-16,96.0
1940-01-17,101.0
1940-01-18,105.0
1940-01-19,95.0
1940-01-20,90.0
1940-01-21,94.0
1940-01-22,88.0
1940-01-23,83.0
1940-01-24,86.0
1940-01-25,85.0
1940-01-26,82.0
1940-01-27,80.0
1940-01-28,82.0
1940-01-29,85.0
1940-01-30,88.0
1940-01-31,90.0
1940-02-01,94.0
1940-02-02,106.0
1940-02-03,132.0
1940-02-04,147.0
1940-02-05,153.0
1940-02-06,142.0
1940-02-07,136.0
1940-02-08,111.0
1940-02-09,108.0
1940-02-10,120.0
1940-02-11,120.0
1940-02-12,111.0
1940-02-13,100.0
1940-02-14,96.0
1940-02-15,92.0
1940-02-16,92.0
1940-02-17,89.0
1940-02-18,85.0
1940-02-19,86.0
1940-02-20,82.0
1940-02-21,85.0
1940-02-22,85.0
1940-02-23,85.0
1940-02-24,83.0
1940-02-25,86.0
1940-02-26,86.0
1940-02-27,85.0
1940-02-28,85.0
1940-02-29,82.0
1940-03-01,79.0
1940-03-02,78.0
1940-03-03,76.0
1940-03-04,2490.0
1940-03-05,2910.0
1940-03-06,2730.0
1940-03-07,2370.0
1940-03-08,1980.0
1940-03-09,842.0
1940-03-10,382.0
1940-03-11,262.0
1940-03-12,198.0
1940-03-13,162.0
1940-03-14,132.0
1940-03-15,122.0
1940-03-16,120.0
1940-03-17,128.0
1940-03-18,118.0
1940-03-19,108.0
1940-03-20,101.0
1940-03-21,101.0
1940-03-22,100.0
1940-03-23,98.0
1940-03-24,100.0
1940-03-25,101.0
1940-03-26,95.0
1940-03-27,94.0
1940-03-28,89.0
1940-03-29,82.0
1940-03-30,79.0
1940-03-31,80.0
1940-04-01,76.0
1940-04-02,66.0
1940-04-03,58.0
1940-04-04,51.0
1940-04-05,75.0
1940-04-06,124.0
1940-04-07,193.0
1940-04-08,182.0
1940-04-09,140.0
1940-04-10,147.0
1940-04-11,124.0
1940-04-12,103.0
1940-04-13,89.0
1940-04-14,89.0
1940-04-15,89.0
1940-04-16,64.0
1940-04-17,65.0
1940-04-18,62.0
1940-04-19,71.0
1940-04-20,67.0
1940-04-21,70.0
1940-04-22,67.0
1940-04-23,59.0
1940-04-24,58.0
1940-04-25,874.0
1940-04-26,1300.0
1940-04-27,1300.0
1940-04-28,1320.0
1940-04-29,1360.0
1940-04-30,1330.0
1940-05-01,1340.0
1940-05-02,914.0
1940-05-03,354.0
1940-05-04,236.0
1940-05-05,180.0
1940-05-06,142.0
1940-05-07,111.0
1940-05-08,151.0
1940-05-09,298.0
1940-05-10,334.0
1940-05-11,185.0
1940-05-12,134.0
1940-05-13,116.0
1940-05-14,124.0
1940-05-15,113.0
1940-05-16,100.0
1940-05-17,88.0
1940-05-18,82.0
1940-05-19,82.0
1940-05-20,78.0
1940-05-21,76.0
1940-05-22,874.0
1940-05-23,1640.0
1940-05-24,350.0
1940-05-25,362.0
1940-05-26,262.0
1940-05-27,175.0
1940-05-28,140.0
1940-05-29,122.0
1940-05-30,113.0
1940-05-31,95.0
1940-06-01,83.0
1940-06-02,83.0
1940-06-03,82.0
1940-06-04,68.0
1940-06-05,65.0
1940-06-06,62.0
1940-06-07,54.0
1940-06-08,47.0
1940-06-09,46.0
1940-06-10,59.0
1940-06-11,48.0
1940-06-12,39.0
1940-06-13,33.0
1940-06-14,31.0
1940-06-15,28.0
1940-06-16,38.0
1940-06-17,40.0
1940-06-18,35.0
1940-06-19,35.0
1940-06-20,33.0
1940-06-21,28.0
1940-06-22,34.0
1940-06-23,329.0
1940-06-24,1330.0
1940-06-25,1360.0
1940-06-26,1240.0
1940-06-27,1220.0
1940-06-28,1290.0
1940-06-29,2150.0
1940-06-30,1600.0
1940-07-01,928.0
1940-07-02,362.0
1940-07-03,255.0
1940-07-04,190.0
1940-07-05,153.0
1940-07-06,145.0
1940-07-07,118.0
1940-07-08,101.0
1940-07-09,82.0
1940-07-10,72.0
1940-07-11,61.0
1940-07-12,57.0
1940-07-13,43.0
1940-07-14,43.0
1940-07-15,47.0
1940-07-16,29.0
1940-07-17,22.0
1940-07-18,33.0
1940-07-19,33.0
1940-07-20,30.0
1940-07-21,28.0
1940-07-22,35.0
1940-07-23,19.0
1940-07-24,10.0
1940-07-25,11.0
1940-07-26,10.0
1940-07-27,9.0
1940-07-28,234.0
1940-07-29,978.0
1940-07-30,1020.0
1940-07-31,1010.0
1940-08-01,1080.0
1940-08-02,1050.0
1940-08-03,1000.0
1940-08-04,1030.0
1940-08-05,1050.0
1940-08-06,994.0
1940-08-07,1060.0
1940-08-08,1080.0
1940-08-09,497.0
1940-08-10,268.0
1940-08-11,172.0
1940-08-12,142.0
1940-08-13,185.0
1940-08-14,160.0
1940-08-15,136.0
1940-08-16,104.0
1940-08-17,80.0
1940-08-18,76.0
1940-08-19,71.0
1940-08-20,46.0
1940-08-21,46.0
1940-08-22,37.0
1940-08-23,27.0
1940-08-24,16.0
1940-08-25,20.0
1940-08-26,26.0
1940-08-27,15.0
1940-08-28,9.0
1940-08-29,2.0
1940-08-30,2.0
1940-08-31,5.0
1940-09-01,6.0
1940-09-02,20.0
1940-09-03,9.0
1940-09-04,6.0
1940-09-05,749.0
1940-09-06,1050.0
1940-09-07,1140.0
1940-09-08,1060.0
1940-09-09,1040.0
1940-09-10,1020.0
1940-09-11,930.0
1940-09-12,354.0
1940-09-13,221.0
1940-09-14,158.0
1940-09-15,124.0
1940-09-16,90.0
1940-09-17,75.0
1940-09-18,67.0
1940-09-19,53.0
1940-09-20,45.0
1940-09-21,37.0
1940-09-22,36.0
1940-09-23,40.0
1940-09-24,36.0
1940-09-25,34.0
1940-09-26,41.0
1940-09-27,38.0
1940-09-28,37.0
1940-09-29,37.0
1940-09-30,45.0
1940-10-01,43.0
1940-10-02,39.0
1940-10-03,43.0
1940-10-04,46.0
1940-10-05,44.0
1940-10-06,41.0
1940-10-07,42.0
1940-10-08,33.0
1940-10-09,34.0
1940-10-10,41.0
1940-10-11,47.0
1940-10-12,53.0
1940-10-13,79.0
1940-10-14,83.0
1940-10-15,80.0
1940-10-16,82.0
1940-10-17,73.0
1940-10-18,70.0
1940-10-19,70.0
1940-10-20,71.0
1940-10-21,70.0
1940-10-22,70.0
1940-10-23,67.0
1940-10-24,68.0
1940-10-25,66.0
1940-10-26,65.0
1940-10-27,62.0
1940-10-28,59.0
1940-10-29,61.0
1940-10-30,62.0
1940-10-31,61.0
1940-11-01,64.0
1940-11-02,65.0
1940-11-03,64.0
1940-11-04,62.0
1940-11-05,59.0
1940-11-06,59.0
1940-11-07,65.0
1940-11-08,75.0
1940-11-09,79.0
1940-11-10,78.0
1940-11-11,76.0
1940-11-12,75.0
1940-11-13,73.0
1940-11-14,83.0
1940-11-15,90.0
1940-11-16,90.0
1940-11-17,90.0
1940-11-18,88.0
1940-11-19,86.0
1940-11-20,89.0
1940-11-21,89.0
1940-11-22,100.0
1940-11-23,106.0
1940-11-24,116.0
1940-11-25,126.0
1940-11-26,145.0
1940-11-27,142.0
1940-11-28,151.0
1940-11-29,158.0
1940-11-30,145.0
1940-12-01,130.0
1940-12-02,126.0
1940-12-03,120.0
1940-12-04,118.0
1940-12-05,115.0
1940-12-06,113.0
1940-12-07,111.0
1940-12-08,100.0
1940-12-09,106.0
1940-12-10,106.0
1940-12-11,94.0
1940-12-12,82.0
1940-12-13,76.0
1940-12-14,75.0
1940-12-15,79.0
1940-12-16,85.0
1940-12-17,82.0
1940-12-18,78.0
1940-12-19,75.0
1940-12-20,78.0
1940-12-21,79.0
1940-12-22,78.0
1940-12-23,80.0
1940-12-24,78.0
1940-12-25,79.0
1940-12-26,76.0
1940-12-27,73.0
1940-12-28,89.0
1940-12-29,96.0
1940-12-30,100.0
1940-12-31,95.0
1941-01-01,82.0
1941-01-02,75.0
1941-01-03,75.0
1941-01-04,75.0
1941-01-05,70.0
1941-01-06,70.0
1941-01-07,67.0
1941-01-08,68.0
1941-01-09,76.0
1941-01-10,75.0
1941-01-11,75.0
1941-01-12,78.0
1941-01-13,82.0
1941-01-14,78.0
1941-01-15,78.0
1941-01-16,71.0
1941-01-17,72.0
1941-01-18,75.0
1941-01-19,98.0
1941-01-20,92.0
1941-01-21,83.0
1941-01-22,89.0
1941-01-23,103.0
1941-01-24,79.0
1941-01-25,75.0
1941-01-26,75.0
1941-01-27,82.0
1941-01-28,83.0
1941-01-29,89.0
1941-01-30,86.0
1941-01-31,86.0
1941-02-01,88.0
1941-02-02,80.0
1941-02-03,80.0
1941-02-04,78.0
1941-02-05,79.0
1941-02-06,83.0
1941-02-07,83.0
1941-02-08,92.0
1941-02-09,96.0
1941-02-10,90.0
1941-02-11,83.0
1941-02-12,82.0
1941-02-13,80.0
1941-02-14,76.0
1941-02-15,75.0
1941-02-16,89.0
1941-02-17,86.0
1941-02-18,78.0
1941-02-19,73.0
1941-02-20,71.0
1941-02-21,72.0
1941-02-22,76.0
1941-02-23,78.0
1941-02-24,80.0
1941-02-25,83.0
1941-02-26,96.0
1941-02-27,96.0
1941-02-28,85.0
1941-03-01,80.0
1941-03-02,78.0
1941-03-03,89.0
1941-03-04,101.0
1941-03-05,101.0
1941-03-06,94.0
1941-03-07,92.0
1941-03-08,89.0
1941-03-09,96.0
1941-03-10,95.0
1941-03-11,90.0
1941-03-12,92.0
1941-03-13,90.0
1941-03-14,304.0
1941-03-15,956.0
1941-03-16,1210.0
1941-03-17,1400.0
1941-03-18,1410.0
1941-03-19,1460.0
1941-03-20,1370.0
1941-03-21,1320.0
1941-03-22,1800.0
1941-03-23,2200.0
1941-03-24,1200.0
1941-03-25,758.0
1941-03-26,2290.0
1941-03-27,1020.0
1941-03-28,440.0
1941-03-29,310.0
1941-03-30,278.0
1941-03-31,242.0
1941-04-01,215.0
1941-04-02,198.0
1941-04-03,188.0
1941-04-04,172.0
1941-04-05,165.0
1941-04-06,165.0
1941-04-07,153.0
1941-04-08,140.0
1941-04-09,128.0
1941-04-10,111.0
1941-04-11,110.0
1941-04-12,124.0
1941-04-13,124.0
1941-04-14,110.0
1941-04-15,103.0
1941-04-16,100.0
1941-04-17,92.0
1941-04-18,98.0
1941-04-19,95.0
1941-04-20,82.0
1941-04-21,79.0
1941-04-22,76.0
1941-04-23,68.0
1941-04-24,67.0
1941-04-25,80.0
1941-04-26,195.0
1941-04-27,4000.0
1941-04-28,10500.0
1941-04-29,4580.0
1941-04-30,2910.0
1941-05-01,1320.0
1941-05-02,6070.0
1941-05-03,14800.0
1941-05-04,6830.0
1941-05-05,2470.0
1941-05-06,1230.0
1941-05-07,794.0
1941-05-08,638.0
1941-05-09,520.0
1941-05-10,445.0
1941-05-11,402.0
1941-05-12,467.0
1941-05-13,1970.0
1941-05-14,644.0
1941-05-15,505.0
1941-05-16,480.0
1941-05-17,402.0
1941-05-18,346.0
1941-05-19,303.0
1941-05-20,319.0
1941-05-21,484.0
1941-05-22,6450.0
1941-05-23,10200.0
1941-05-24,12400.0
1941-05-25,15900.0
1941-05-26,9140.0
1941-05-27,4140.0
1941-05-28,3370.0
1941-05-29,3170.0
1941-05-30,3650.0
1941-05-31,4010.0
1941-06-01,4830.0
1941-06-02,3500.0
1941-06-03,2360.0
1941-06-04,2410.0
1941-06-05,2990.0
1941-06-06,9820.0
1941-06-07,10300.0
1941-06-08,3140.0
1941-06-09,2180.0
1941-06-10,1970.0
1941-06-11,1390.0
1941-06-12,1980.0
1941-06-13,2050.0
1941-06-14,1510.0
1941-06-15,1360.0
1941-06-16,2170.0
1941-06-17,1100.0
1941-06-18,724.0
1941-06-19,2370.0
1941-06-20,1270.0
1941-06-21,1550.0
1941-06-22,1290.0
1941-06-23,1640.0
1941-06-24,1750.0
1941-06-25,1380.0
1941-06-26,1090.0
1941-06-27,922.0
1941-06-28,752.0
1941-06-29,1350.0
1941-06-30,1920.0
1941-07-01,1470.0
1941-07-02,1120.0
1941-07-03,638.0
1941-07-04,1100.0
1941-07-05,704.0
1941-07-06,422.0
1941-07-07,455.0
1941-07-08,386.0
1941-07-09,322.0
1941-07-10,268.0
1941-07-11,258.0
1941-07-12,653.0
1941-07-13,2470.0
1941-07-14,3480.0
1941-07-15,6600.0
1941-07-16,5600.0
1941-07-17,3920.0
1941-07-18,1450.0
1941-07-19,808.0
1941-07-20,590.0
1941-07-21,465.0
1941-07-22,856.0
1941-07-23,1310.0
1941-07-24,2300.0
1941-07-25,1740.0
1941-07-26,858.0
1941-07-27,921.0
1941-07-28,700.0
1941-07-29,560.0
1941-07-30,530.0
1941-07-31,475.0
1941-08-01,435.0
1941-08-02,450.0
1941-08-03,738.0
1941-08-04,970.0
1941-08-05,533.0
1941-08-06,370.0
1941-08-07,314.0
1941-08-08,242.0
1941-08-09,209.0
1941-08-10,239.0
1941-08-11,278.0
1941-08-12,275.0
1941-08-13,1680.0
1941-08-14,1310.0
1941-08-15,1060.0
1941-08-16,1850.0
1941-08-17,808.0
1941-08-18,638.0
1941-08-19,520.0
1941-08-20,831.0
1941-08-21,888.0
1941-08-22,1260.0
1941-08-23,2730.0
1941-08-24,1440.0
1941-08-25,1240.0
1941-08-26,1080.0
1941-08-27,465.0
1941-08-28,354.0
1941-08-29,310.0
1941-08-30,3200.0
1941-08-31,1600.0
1941-09-01,1070.0
1941-09-02,1150.0
1941-09-03,1010.0
1941-09-04,602.0
1941-09-05,574.0
1941-09-06,354.0
1941-09-07,289.0
1941-09-08,258.0
1941-09-09,268.0
1941-09-10,334.0
1941-09-11,306.0
1941-09-12,278.0
1941-09-13,262.0
1941-09-14,265.0
1941-09-15,275.0
1941-09-16,272.0
1941-09-17,252.0
1941-09-18,252.0
1941-09-19,289.0
1941-09-20,262.0
1941-09-21,4600.0
1941-09-22,9740.0
1941-09-23,27500.0
1941-09-24,39800.0
1941-09-25,33600.0
1941-09-26,6930.0
1941-09-27,2800.0
1941-09-28,2160.0
1941-09-29,9470.0
1941-09-30,17000.0
1941-10-01,22300.0
1941-10-02,17500.0
1941-10-03,5130.0
1941-10-04,5230.0
1941-10-05,6060.0
1941-10-06,3870.0
1941-10-07,2380.0
1941-10-08,1730.0
1941-10-09,1580.0
1941-10-10,1700.0
1941-10-11,1770.0
1941-10-12,1560.0
1941-10-13,1000.0
1941-10-14,934.0
1941-10-15,1580.0
1941-10-16,1580.0
1941-10-17,1480.0
1941-10-18,1440.0
1941-10-19,1440.0
1941-10-20,1070.0
1941-10-21,938.0
1941-10-22,1130.0
1941-10-23,6840.0
1941-10-24,5040.0
1941-10-25,6070.0
1941-10-26,3700.0
1941-10-27,3190.0
1941-10-28,1720.0
1941-10-29,1050.0
1941-10-30,1320.0
1941-10-31,2390.0
1941-11-01,3400.0
1941-11-02,2810.0
1941-11-03,680.0
1941-11-04,1010.0
1941-11-05,853.0
1941-11-06,1060.0
1941-11-07,1760.0
1941-11-08,909.0
1941-11-09,751.0
1941-11-10,699.0
1941-11-11,784.0
1941-11-12,994.0
1941-11-13,962.0
1941-11-14,954.0
1941-11-15,946.0
1941-11-16,923.0
1941-11-17,930.0
1941-11-18,909.0
1941-11-19,902.0
1941-11-20,895.0
1941-11-21,938.0
1941-11-22,930.0
1941-11-23,811.0
1941-11-24,588.0
1941-11-25,546.0
1941-11-26,529.0
1941-11-27,512.0
1941-11-28,502.0
1941-11-29,496.0
1941-11-30,496.0
1941-12-01,485.0
1941-12-02,588.0
1941-12-03,699.0
1941-12-04,642.0
1941-12-05,642.0
1941-12-06,630.0
1941-12-07,636.0
1941-12-08,630.0
1941-12-09,630.0
1941-12-10,648.0
1941-12-11,660.0
1941-12-12,718.0
1941-12-13,751.0
1941-12-14,692.0
1941-12-15,648.0
1941-12-16,552.0
1941-12-17,475.0
1941-12-18,455.0
1941-12-19,445.0
1941-12-20,430.0
1941-12-21,425.0
1941-12-22,420.0
1941-12-23,405.0
1941-12-24,395.0
1941-12-25,385.0
1941-12-26,380.0
1941-12-27,385.0
1941-12-28,502.0
1941-12-29,524.0
1941-12-30,529.0
1941-12-31,529.0
1942-01-01,534.0
1942-01-02,512.0
1942-01-03,524.0
1942-01-04,540.0
1942-01-05,540.0
1942-01-06,529.0
1942-01-07,490.0
1942-01-08,425.0
1942-01-09,405.0
1942-01-10,365.0
1942-01-11,370.0
1942-01-12,380.0
1942-01-13,380.0
1942-01-14,370.0
1942-01-15,350.0
1942-01-16,350.0
1942-01-17,350.0
1942-01-18,400.0
1942-01-19,465.0
1942-01-20,470.0
1942-01-21,485.0
1942-01-22,490.0
1942-01-23,502.0
1942-01-24,496.0
1942-01-25,490.0
1942-01-26,485.0
1942-01-27,470.0
1942-01-28,455.0
1942-01-29,455.0
1942-01-30,455.0
1942-01-31,440.0
1942-02-01,460.0
1942-02-02,455.0
1942-02-03,465.0
1942-02-04,465.0
1942-02-05,465.0
1942-02-06,485.0
1942-02-07,692.0
1942-02-08,777.0
1942-02-09,784.0
1942-02-10,1130.0
1942-02-11,1130.0
1942-02-12,642.0
1942-02-13,465.0
1942-02-14,395.0
1942-02-15,345.0
1942-02-16,315.0
1942-02-17,295.0
1942-02-18,279.0
1942-02-19,267.0
1942-02-20,263.0
1942-02-21,275.0
1942-02-22,255.0
1942-02-23,259.0
1942-02-24,234.0
1942-02-25,238.0
1942-02-26,234.0
1942-02-27,217.0
1942-02-28,214.0
1942-03-01,230.0
1942-03-02,238.0
1942-03-03,248.0
1942-03-04,238.0
1942-03-05,227.0
1942-03-06,217.0
1942-03-07,217.0
1942-03-08,201.0
1942-03-09,220.0
1942-03-10,208.0
1942-03-11,189.0
1942-03-12,178.0
1942-03-13,164.0
1942-03-14,158.0
1942-03-15,154.0
1942-03-16,154.0
1942-03-17,146.0
1942-03-18,141.0
1942-03-19,146.0
1942-03-20,164.0
1942-03-21,164.0
1942-03-22,169.0
1942-03-23,172.0
1942-03-24,167.0
1942-03-25,164.0
1942-03-26,158.0
1942-03-27,156.0
1942-03-28,172.0
1942-03-29,172.0
1942-03-30,167.0
1942-03-31,158.0
1942-04-01,156.0
1942-04-02,156.0
1942-04-03,164.0
1942-04-04,178.0
1942-04-05,181.0
1942-04-06,181.0
1942-04-07,172.0
1942-04-08,181.0
1942-04-09,259.0
1942-04-10,380.0
1942-04-11,425.0
1942-04-12,345.0
1942-04-13,307.0
1942-04-14,291.0
1942-04-15,288.0
1942-04-16,279.0
1942-04-17,279.0
1942-04-18,500.0
1942-04-19,1000.0
1942-04-20,1800.0
1942-04-21,1880.0
1942-04-22,1980.0
1942-04-23,2300.0
1942-04-24,2500.0
1942-04-25,2400.0
1942-04-26,4700.0
1942-04-27,4000.0
1942-04-28,4100.0
1942-04-29,3850.0
1942-04-30,4000.0
1942-05-01,2000.0
1942-05-02,1140.0
1942-05-03,648.0
1942-05-04,480.0
1942-05-05,405.0
1942-05-06,340.0
1942-05-07,307.0
1942-05-08,291.0
1942-05-09,271.0
1942-05-10,291.0
1942-05-11,271.0
1942-05-12,252.0
1942-05-13,230.0
1942-05-14,568.0
1942-05-15,948.0
1942-05-16,1400.0
1942-05-17,1680.0
1942-05-18,1680.0
1942-05-19,1730.0
1942-05-20,1680.0
1942-05-21,1680.0
1942-05-22,1880.0
1942-05-23,2250.0
1942-05-24,2520.0
1942-05-25,2560.0
1942-05-26,1750.0
1942-05-27,678.0
1942-05-28,410.0
1942-05-29,295.0
1942-05-30,235.0
1942-05-31,224.0
1942-06-01,248.0
1942-06-02,365.0
1942-06-03,275.0
1942-06-04,275.0
1942-06-05,263.0
1942-06-06,283.0
1942-06-07,271.0
1942-06-08,271.0
1942-06-09,259.0
1942-06-10,252.0
1942-06-11,230.0
1942-06-12,186.0
1942-06-13,562.0
1942-06-14,751.0
1942-06-15,784.0
1942-06-16,758.0
1942-06-17,465.0
1942-06-18,327.0
1942-06-19,327.0
1942-06-20,307.0
1942-06-21,244.0
1942-06-22,220.0
1942-06-23,198.0
1942-06-24,186.0
1942-06-25,169.0
1942-06-26,141.0
1942-06-27,125.0
1942-06-28,125.0
1942-06-29,132.0
1942-06-30,118.0
1942-07-01,218.0
1942-07-02,350.0
1942-07-03,555.0
1942-07-04,465.0
1942-07-05,287.0
1942-07-06,355.0
1942-07-07,355.0
1942-07-08,315.0
1942-07-09,319.0
1942-07-10,307.0
1942-07-11,340.0
1942-07-12,315.0
1942-07-13,204.0
1942-07-14,164.0
1942-07-15,158.0
1942-07-16,116.0
1942-07-17,103.0
1942-07-18,112.0
1942-07-19,118.0
1942-07-20,112.0